User: anonymous   Login
Location: Table Mountain
(47.2500°N, 120.5778°W)
Time: 00:30:52
(UTC-08:00)
Language:

UKube-1 - Orbit

View from above orbital plane
View from above orbital plane
View from above satellite
View from above satellite

Ground track
Ground track

The orbit data is extracted from the following two-line orbital elements,

1 40074U 14037F   18324.19071406  .00000263  00000-0  38824-4 0  9996
2 40074  98.4080 109.5557 0004868 159.9073 200.2331 14.83915496236437
Epoch (UTC): 20 November 2018 04:34:37
Eccentricity: 0.0004868
inclination: 98.4080°
perigee height: 613 km
apogee height: 620 km
right ascension of ascending node: 109.5557°
argument of perigee: 159.9073°
revolutions per day: 14.83915496
mean anomaly at epoch: 200.2331°
orbit number at epoch: 23643

The dashed part of the orbit path shows where the satellite is in the earth's shadow,  

DLR